#timestamp,LO_Frequency,Hit,StdDev 
1697263215.4,286047006.0,N
1697263235.2,286047004.3,N
1697263255.1,286046999.7,N
1697263256.0,286046999.7,N
1697263275.8,286047001.8,N
1697263295.7,286047001.7,N
1697263315.5,286047000.4,N
1697263335.3,286046998.1,N
1697263355.2,286046998.8,N
1697263375.9,286047001.2,N
1697263395.7,286046998.9,N
1697263415.6,286047001.2,N
1697263435.4,286046999.5,N
1697263455.2,286047000.9,N
1697263475.1,286047001.8,N
1697263476.0,286047001.8,N
1697263495.8,286047002.0,N
1697263515.7,286047000.4,N
1697263535.5,286047001.1,N
1697263555.3,286046998.6,N
1697263575.2,286046999.6,N
1697263595.0,286046998.2,N
1697263595.9,286046998.2,N
1697263615.8,286046999.6,N
1697263635.6,286046997.6,N
1697263655.4,286046994.2,N
1697263675.3,286046994.4,N
1697263695.1,286046992.9,N
1697263715.9,286046994.3,N
1697263735.7,286046993.1,N
1697263755.5,286046994.4,N
1697263775.4,286046993.1,N
1697263795.2,286046991.8,N
1697263815.0,286046994.0,N
1697263815.9,286046994.0,N
1697263835.8,286046993.3,N
1697263855.6,286046997.7,N
1697263875.5,286046997.6,N
1697263895.3,286046997.9,N
1697263915.1,286046997.5,N
1697263935.9,286046993.4,N
1697263955.7,286046999.2,N
1697263975.5,286046997.7,N
1697263995.4,286046995.0,N
1697264015.2,286046996.2,N
1697264035.0,286046995.8,N
1697264035.9,286046995.8,N
1697264055.8,286046993.8,N
1697264075.6,286046992.8,N
1697264095.5,286046994.2,N
1697264115.3,286046994.6,N
1697264135.1,286046991.4,Y
1697264155.9,286046997.0,P
1697264175.7,286046999.0,N
1697264195.5,286046997.9,N
1697264215.4,286046996.0,Y
1697264235.2,286047000.3,P
1697264255.1,286047002.2,N
1697264256.0,286047002.2,N
1697264275.8,286047004.2,N
1697264295.6,286047000.8,N
1697264315.5,286046996.7,N
1697264335.3,286046995.3,N
1697264355.2,286046991.7,N
1697264375.9,286046990.3,N
1697264395.7,286046999.2,N
1697264415.6,286046998.1,N
1697264435.4,286047000.9,N
1697264455.2,286046997.7,N
1697264475.1,286046994.6,N
1697264476.0,286046994.6,N
1697264495.8,286046994.3,N
1697264515.7,286046990.6,N
1697264535.5,286046991.3,N
1697264555.3,286046992.9,N
1697264575.2,286047000.8,N
1697264595.9,286046994.9,N
1697264615.7,286046990.5,N
1697264635.6,286046993.2,N
1697264655.4,286046997.7,N
1697264675.3,286046992.5,N
1697264695.1,286046991.5,N
1697264715.8,286046985.4,Y
1697264735.7,286046987.7,P
1697264755.5,286046988.6,N
1697264775.4,286046989.9,N
1697264795.2,286046988.7,Y
1697264815.0,286047008.4,P
1697264816.0,286047008.4,N
1697264835.8,286047011.2,N
1697264855.6,286047011.1,N
1697264875.5,286047006.7,N
1697264895.3,286047002.2,N
1697264915.1,286046999.9,N
1697264935.9,286047000.5,N
1697264955.7,286046998.5,N
1697264975.6,286046999.9,N
1697264995.4,286047000.3,N
1697265015.2,286047000.1,N
1697265035.1,286046998.6,N
1697265036.0,286046998.6,N
1697265055.8,286047004.2,N
1697265075.6,286047002.4,N
1697265095.5,286046997.7,N
1697265115.3,286046997.3,N
1697265135.2,286046997.6,N
1697265155.9,286046993.0,N
1697265175.7,286046992.2,N
1697265195.6,286046992.6,N
1697265215.4,286046994.6,N
1697265235.3,286046990.1,N
1697265255.1,286046994.0,N
1697265256.0,286046994.0,N
1697265275.8,286046992.2,N
1697265295.7,286046993.6,N
1697265315.5,286046992.5,N
1697265335.3,286046991.5,N
1697265355.2,286046989.7,N
1697265375.0,286046992.8,N
1697265375.9,286046992.8,N
1697265395.8,286046990.2,N
1697265415.6,286046989.5,N
1697265435.4,286046987.1,Y
1697265455.3,286046989.2,P
1697265475.1,286046987.8,P
1697265495.9,286046988.4,P
1697265515.7,286046985.3,Y
1697265535.5,286047000.5,P
1697265555.4,286047000.0,N
1697265575.2,286047000.6,N
1697265595.1,286046996.6,N
1697265596.0,286046996.6,N
1697265615.8,286046994.9,N
1697265635.6,286046995.7,N
1697265655.5,286046996.1,N
1697265675.3,286046994.4,N
1697265695.1,286046993.9,N
1697265715.9,286046994.3,N
1697265735.7,286046990.2,Y
1697265755.6,286046998.0,P
1697265775.4,286046997.4,N
1697265795.2,286046993.9,P
1697265815.1,286046994.0,Y
1697265816.0,286046994.0,P
1697265835.8,286046995.4,P
1697265855.7,286046995.2,P
1697265875.5,286046991.8,Y
1697265895.3,286046996.6,P
1697265915.2,286047000.5,N
1697265935.0,286046999.6,N
1697265935.9,286046999.6,N
1697265955.7,286046995.7,N
1697265975.6,286046999.1,N
1697265995.4,286047000.2,N
1697266015.3,286047000.4,N
1697266035.1,286047000.7,N
1697266036.0,286047000.7,N
1697266055.8,286046998.3,N
1697266075.7,286046995.4,N
1697266095.5,286046996.4,N
1697266115.3,286046995.2,N
1697266135.2,286046994.2,N
1697266155.0,286046992.3,Y
1697266155.9,286046992.3,P
1697266175.8,286046997.0,N
1697266195.6,286046996.7,N
1697266215.4,286047002.3,N
1697266235.3,286047002.1,N
1697266255.1,286047000.5,N
1697266275.8,286047000.4,N
1697266295.7,286046993.4,N
1697266315.5,286046994.2,N
1697266335.4,286046993.7,N
1697266355.2,286046993.7,N
1697266375.0,286046995.7,N
1697266375.9,286046995.7,N
1697266395.8,286046992.9,N
1697266415.6,286046994.7,N
1697266435.4,286046992.4,N
1697266455.3,286046991.2,N
1697266475.1,286046990.7,N
1697266495.9,286046988.5,Y
1697266515.7,286046994.6,P
1697266535.5,286046996.0,P
1697266555.4,286046995.7,P
1697266575.2,286046990.2,Y
1697266595.0,286046996.1,P
1697266596.0,286046996.1,P
1697266615.8,286046990.3,P
1697266635.6,286046993.9,N
1697266655.5,286046994.4,N
1697266675.3,286046993.3,Y
1697266695.1,286047002.7,P
1697266715.9,286047001.3,N
1697266735.7,286047002.0,N
1697266755.6,286047000.8,N
1697266775.4,286046998.7,N
1697266795.2,286047001.1,N
